Regional Weather Roundup
Issued by NWS

Home | Current Version | Previous Version | Graphics & Text | Print | Product List | Glossary Off
Versions: 1 2 3 4 5 6 7 8 9 10 11 12 13 14 15 16 17 18 19 20 21 22 23 24 25 26 27 28 29 30 31 32 33 34 35 36 37 38 39 40 41 42 43 44 45 46 47 48 49 50

000
ASUS43 KOAX 310610
RWRNE

WEATHER ROUNDUP FOR NEBRASKA
NATIONAL WEATHER SERVICE OMAHA NE
100 AM CDT WED AUG 31 2016

NOTES: SATELLITE DATA IS BEING USED TO AUGMENT CLOUD COVER ABOVE
       12000 FEET.
       "FAIR" INDICATES FEW OR NO CLOUDS BELOW 12,000 FEET WITH NO
       SIGNIFICANT WEATHER AND/OR OBSTRUCTIONS TO VISIBILITY.

  * THESE STATIONS DO NOT REPORT WEATHER SUCH AS RAIN...SNOW OR FOG.

NEZ001>004-019>022-054>056-310700-
NEBRASKA PANHANDLE

CITY           SKY/WX    TMP DP  RH WIND       PRES   REMARKS
SCOTTSBLUFF    CLEAR     61  56  83 E6        30.28R
6HR MIN TEMP:  61; 6HR MAX TEMP:  82;

ALLIANCE       CLEAR     56  55  97 S7        30.27S
6HR MIN TEMP:  56; 6HR MAX TEMP:  78;

CHADRON        CLEAR     67  55  65 SW8       30.23R
6HR MIN TEMP:  66; 6HR MAX TEMP:  87;

KIMBALL        CLEAR     57  57 100 S5        30.33F
SIDNEY         CLEAR     60  58  92 S3        30.30F
6HR MIN TEMP:  60; 6HR MAX TEMP:  76;

$$

NEZ057>060-069>072-079>082-310700-
SOUTHWEST NEBRASKA

CITY           SKY/WX    TMP DP  RH WIND       PRES   REMARKS
NORTH PLATTE   PTCLDY    66  64  93 E5        30.24R
6HR MIN TEMP:  65; 6HR MAX TEMP:  76;

IMPERIAL       MOCLDY    65  64  97 E5        30.24F
6HR MIN TEMP:  64; 6HR MAX TEMP:  72;

LEXINGTON      PTCLDY    68  65  92 CALM      30.22S FOG
MCCOOK         CLOUDY    68  65  90 E9        30.22S
6HR MIN TEMP:  68; 6HR MAX TEMP:  73;

OGALLALA       PTCLDY    63  60  90 CALM      30.25F
$$

NEZ005>010-023>029-035>040-094-310700-
NORTH CENTRAL NEBRASKA

CITY           SKY/WX    TMP DP  RH WIND       PRES   REMARKS
VALENTINE      CLEAR     66  61  84 CALM      30.23R
6HR MIN TEMP:  66; 6HR MAX TEMP:  86; 6HR PCP:  0.51;

AINSWORTH      PTCLDY    63  63  99 S5        30.23F
BROKEN BOW     MOCLDY    59  59 100 N3        30.23R FOG
6HR MIN TEMP:  59; 6HR MAX TEMP:  74;

O`NEILL        CLEAR     67  66  95 S3        30.21S FOG
ORD            FOG       62  60  93 CALM      30.20  VSB 3/4
6HR MIN TEMP:  62; 6HR MAX TEMP:  77;

THEDFORD       PTCLDY    62  61  96 S5        30.25S
$$

NEZ041-046>049-061>064-073>077-083>087-310700-
SOUTH CENTRAL NEBRASKA

CITY           SKY/WX    TMP DP  RH WIND       PRES   REMARKS
GRAND ISLAND   CLOUDY    68  67  96 CALM      30.20F FOG
6HR MIN TEMP:  68; 6HR MAX TEMP:  74; 6HR PCP: TRACE;

AURORA         CLOUDY    67  67 100 NE3       30.19F FOG
HASTINGS       MOCLDY    69  67  93 E5        30.20F
6HR MIN TEMP:  69; 6HR MAX TEMP:  72;

HEBRON         CLOUDY    69  68  98 CALM      30.18S FOG
HOLDREGE       CLOUDY    67  65  94 CALM      30.21F FOG
KEARNEY *      CLOUDY    68  66  94 CALM      30.19F
YORK           CLOUDY    66  66 100 CALM      30.20S FOG
$$

NEZ011>018-030>034-042>045-310700-
NORTHEAST NEBRASKA

CITY           SKY/WX    TMP DP  RH WIND       PRES   REMARKS
NORFOLK        FAIR      66  63  90 CALM      30.19S
6HR MIN TEMP:  65; 6HR MAX TEMP:  77;

ALBION         FAIR      65  63  92 CALM      30.20S FOG
BLAIR          MOCLDY    71  68  89 N6        30.17F
FREMONT        FAIR      69  68  98 CALM      30.19R
TEKAMAH        FAIR      68  66  93 CALM      30.17R
6HR MIN TEMP:  67; 6HR MAX TEMP:  77;

WAYNE          FAIR      65  64  97 CALM      30.20S
$$

NEZ050>053-065>068-078-088>093-310700-
SOUTHEAST NEBRASKA

CITY           SKY/WX    TMP DP  RH WIND       PRES   REMARKS
LINCOLN        CLOUDY    71  69  93 N6        30.17F
6HR MIN TEMP:  70; 6HR MAX TEMP:  75; 6HR PCP: TRACE;

OMAHA EPPLEY   CLOUDY    72  69  90 N3        30.16S
6HR MIN TEMP:  72; 6HR MAX TEMP:  77;

BEATRICE       CLOUDY    70  69  98 CALM      30.17S FOG
FALLS CITY     MOCLDY    72  70  93 CALM      30.14S
6HR MIN TEMP:  72; 6HR MAX TEMP:  78;

NEBRASKA CITY  DRIZZLE   71  71 100 NE3       30.16S
PLATTSMOUTH    CLOUDY    72  71  97 CALM      30.17S
$$

NEZ044-045-051>053-067-310700-
OMAHA AREA

CITY           SKY/WX    TMP DP  RH WIND       PRES   REMARKS
OMAHA EPPLEY   CLOUDY    72  69  90 N3        30.16S
6HR MIN TEMP:  72; 6HR MAX TEMP:  77;

BLAIR          MOCLDY    71  68  89 N6        30.17F
FREMONT        FAIR      69  68  98 CALM      30.19R
MILLARD        CLOUDY   N/A N/A N/A CALM      30.16S
OFFUTT AFB     CLOUDY    72  72 100 N5        30.16R
PLATTSMOUTH    CLOUDY    72  71  97 CALM      30.17S
WAHOO          CLOUDY    69  68  95 CALM      30.17S
$$




USA.gov is the U.S. government's official web portal to all federal, state and local government web resources and services.